Location: Betz
(49.1556°N, 2.9558°E)
Time: 17:24:24
(UTC+00:00)

H-2A R/B - Pass Details

Date: 18 September 2019
Orbit: 734 x 836 km, 98.3° (Epoch: 19 October)

Event Time Altitude Azimuth Distance (km) Brightness Sun altitude
Exits shadow 19:04:22 11° 139° (SE) 2,152 3.8 -11.9°
Maximum altitude 19:08:49 46° 68° (ENE) 1,002 2.3 -12.6°
Drops below altitude 10° 19:13:37 10° 356° (N) 2,303 4.8 -13.3°
Sets 19:16:02 0° 351° (N) 3,248 5.7 -13.7°
